◎2005 WJ56の軌道と予報位置    [From JSGA Web News No. 125]



JSGA Web News No. 125                                             2008 Jan. 11



アテン型特異小惑星 2005 WJ56の接近

  すでに,天文年鑑2008年版(233〜234ページ)で紹介したとおり,この小惑星は,

2008年1月10.4日UTに地球に0.0279 AUまで接近し,ASOのシェロード(P. C. Sherrod;

天文台コードH45)の1月10日の観測によると,小惑星は,10.9等まで明るくなった.

このとき,小惑星は,日々運動13゚の高速で空を移動した.我が国でも,雄踏の和久

田俊一氏(S. Wakuda, Yuto;379),秦野の浅見敦夫氏(A. Asami, Hadano;355)

が,この小惑星の接近を捕らえた.

 次の軌道は,2005年11月のLINEARサーベイによる発見観測から,2007年1月10日に

行なわれたシェロードの観測まで,403個の観測を使用して決定したもの.

               。

       Mo=  29.9265                Epoch = 2008 May 14.0 TT

       ω = 297.6038                   e =   0.152068          H = 17.6

       Ω = 288.0956    (2000.0)       a =   0.959028 AU       G =  0.15

       i =  21.6156                   n゚=   1.0494394

       q =   0.813191 AU              P =   0.94 年





 次の位置予報は,地心からのもの(0時TT).小惑星は,これから次第に暗くなっ

ていくが,ここしばらくは追跡できるだろう.



2008/        α  (2000) δ      △      r    日々運動    Elong.  Phase   V  

  0h TT     h  m       。  ,        AU      AU    ,  PA 。     。      。      等

Jan. 10   05 10.08  +21 52.3    0.028   1.008 834.1/201   149.4   29.8   11.2

     11   04 50.34  +08 48.3    0.028   1.005 781.1/199   140.3   38.7   11.4

     12   04 33.22  -03 29.6    0.030   1.003 665.4/199   129.7   49.0   11.8

     13   04 18.39  -13 57.8    0.033   1.000 535.4/200   120.0   58.4   12.3

     14   04 05.55  -22 21.0    0.037   0.998 420.9/200   111.9   66.1   12.8

     15   03 54.39  -28 53.9    0.042   0.995 330.4/202   105.3   72.4   13.2

     16   03 44.65  -33 59.9    0.047   0.993 261.8/203   100.1   77.3   13.6

     17   03 36.10  -38 00.4    0.053   0.990 210.5/204    95.8   81.1   14.0

     18   03 28.54  -41 11.9    0.058   0.988 171.9/205    92.4   84.3   14.4

     19   03 21.82  -43 46.9    0.064   0.985 142.5/206    89.5   86.8   14.7

     20   03 15.79  -45 54.2    0.070   0.983 119.9/207    87.0   88.9   14.9

     21   03 10.36  -47 40.3    0.077   0.980 102.1/208    84.9   90.6   15.2

     22   03 05.42  -49 09.9    0.083   0.978  88.1/209    83.1   92.1   15.4

     23   03 00.90  -50 26.3    0.089   0.975  76.8/210    81.5   93.3   15.6

     24   02 56.74  -51 32.3    0.095   0.972  67.6/211    80.1   94.4   15.8

     25   02 52.87  -52 29.8    0.102   0.970  60.1/213    78.8   95.3   16.0

     26   02 49.27  -53 20.2    0.108   0.967  53.8/214    77.6   96.1   16.1

     27   02 45.88  -54 04.9    0.114   0.964  48.6/215    76.6   96.8   16.3

     28   02 42.67  -54 44.6    0.120   0.962  44.2/216    75.6   97.5   16.4

     29   02 39.62  -55 20.3    0.127   0.959  40.5/217    74.7   98.0   16.6

     30   02 36.71  -55 52.3    0.133   0.956  37.3/219    73.8   98.5   16.7

     31   02 33.90  -56 21.4    0.139   0.954  34.6/220    73.0   99.0   16.8

Feb.  1   02 31.19  -56 47.7    0.145   0.951  32.3/222    72.3   99.4   16.9





軌道と残差:

 

2005 WJ56

Epoch 2008 May 14.0 TT = JDT 2454600.5                  Nakano

M  29.92651              (2000.0)            P               Q

n   1.04943945     Peri.  297.60379     -0.63918666     +0.68471190

a   0.9590276      Node   288.09558     -0.50901626     -0.71797283

e   0.1520675      Incl.   21.61557     -0.57649186     -0.12523832

P   0.94           H   17.6           G   0.15           U   2

Residuals in seconds of arc 

051129 704  0.7+  1.3+    061215 113  0.1+  0.3-    080101 355  0.2+  0.2+  

051129 704  1.1+  0.8+    061215 113  0.1-  0.2-    080101 355  0.4-  0.2+  

051129 704  0.3+  0.8+    061215 113  0.1+  0.4-    080101 355  0.3+  0.0   

051129 704  0.1-  0.2+    061215 113  0.1+  0.1-    080101 379  0.2-  0.1-  

051129 704  0.0   0.8+    061218 H68 (2.0+  0.6-)   080101 379  0.2+  0.1+  

051130 711  0.9-  0.6+    061218 H68  1.0+  0.1+    080101 379  0.0   0.0   

051130 711  0.1+  0.1+    061218 H68  0.5+  1.0-    080101 379  0.3+  0.0   

051130 711  0.2+  0.2+    061218 H68 (1.8+  2.6-)   080101 379  0.0   0.0   

051130 704  0.8-  0.2+    061218 G72 (1.7-  8.3+)   080101 379  0.2-  0.1-  

051130 G96  0.0   0.3-    061218 G72  1.5+  1.4+    080101 379  0.1+  0.0   

051130 G96  0.1+  0.1-    061218 G72  0.1+  1.2-    080102 H45  0.3-  0.4+  

051130 704  0.6-  0.9+    061219 G72  1.4-  0.2+    080102 H45  0.4-  0.6+  

051130 704  0.0   0.0     061219 G72  0.2-  0.7+    080102 H45  0.2-  0.2+  

051130 147  0.1+  0.2-    061219 G72  0.9+  0.0     080102 H45  0.0   0.0   

051130 147  0.1-  0.0     061220 G72  1.1+  0.1+    080102 H45  0.1-  0.0   

051130 147  0.1-  0.2+    061220 G72  0.2+  0.3+    080102 H45  0.1-  0.0   

051201 113 (6.1-  0.4-)   061220 G72 (0.9-  2.5+)   080103 H51  0.3-  0.0   

051201 113 (6.4-  0.7-)   061220 G72  0.2+  0.2+    080103 H51  0.2-  0.2+  

051201 113 (6.8-  0.6-)   061223 H45  0.1-  0.1-    080103 H51  0.2-  0.2+  

051203 932  0.2+  0.0     061223 H45  0.1+  0.2-    080103 H51  0.3-  0.1-  

051203 932  0.2+  0.5-    061223 H45  0.2+  0.0     080103 H51  0.3-  0.1-  

051203 932  0.3+  0.2+    061223 H45  0.0   0.3+    080103 H51  0.4-  0.1-  

051203 932  0.0   0.0     061223 H45  0.1+  0.1+    080103 H51  0.3-  0.0   

051203 932  0.2+  0.1-    070105 170  0.5-  0.5+    080103 H51  0.1-  0.0   

051203 932  0.4+  0.2-    070105 170  0.1-  0.2+    080103 H51  0.3-  0.3-  

051204 448  0.3-  0.5-    070105 170  0.1+  0.2-    080103 H51  0.3-  0.1-  

051204 448  0.4-  0.6-    070108 H45  0.3+  0.2-    080103 H45  0.3+  0.1-  

051204 448  0.1+  0.6-    070108 H45  0.2-  0.3-    080103 H45  0.1+  0.0   

051207 A50  1.3+  0.0     070108 H45  0.2+  0.3-    080103 H45  0.0   0.1-  

051207 A50  0.2-  0.2-    070108 H45  0.2-  0.1-    080103 H45  0.1+  0.1-  

051207 A50  0.5+  0.5+    070108 H45  0.2+  0.3-    080103 H45  1.3-  0.4-  

051207 A50  0.4-  0.2+    070110 704  0.1+  0.1+    080103 379  0.1-  0.0   

051208 291  0.3+  0.2+    070110 704  0.4+  0.1-    080103 379  0.1+  0.1-  

051208 291  0.9+  0.1+    070110 704  0.4+  0.3+    080103 379  0.1-  0.0   

051208 291  1.5+  0.2+    070110 704  0.4+  0.2-    080103 379  0.2+  0.2+  

051212 461  0.1-  0.1+    070112 084  0.1+  0.2-    080103 379  0.2-  0.1-  

051212 461  0.1+  0.3+    070114 113  0.5-  0.0     080103 379  0.5-  0.3-  

051212 461  0.8-  0.4+    070114 113  0.0   0.2-    080103 151  0.1-  0.2+  

051217 448  0.7+  0.8-    070116 071  1.6-  1.6+    080103 379  0.4-  0.2-  

051217 448  0.1-  0.4+    070116 071  0.8-  0.5-    080103 151  0.2-  0.1+  

051217 448  1.1-  0.1-    070116 071  1.6+  0.9+    080103 151  0.2-  0.2+  

051224 291  0.4-  0.0     070117 703  0.1-  0.9+    080103 379  0.1-  0.3-  

051224 291  0.2+  0.2+    070117 703  0.7-  0.0     080103 151  0.2-  0.1+  

051224 291  0.3+  0.2+    070117 703  0.3+  0.7+    080103 151  0.1-  0.2+  

051229 291  0.0   0.1+    070117 703  0.2-  0.6+    080103 379  0.1+  0.1+  

051229 291  0.3+  0.2+    070120 084  0.2-  0.3-    080103 151  0.1-  0.1+  

051229 291  0.3+  0.2+    070120 084  0.3-  0.3-    080103 151  0.3-  0.3+  

060105 448  0.0   0.1-    070121 704  0.1-  0.9+    080103 J39  0.5-  0.4+  

060105 448  0.1+  0.2+    070121 704  0.6-  0.2-    080103 J39  0.1+  0.5+  

060105 448  0.0   0.1-    070121 704  0.5-  0.9+    080103 J39  0.4-  0.3-  

060111 461  0.0   0.1+    070121 704  0.4-  0.5+    080103 J39  0.5-  0.3-  

060111 461  0.2+  0.2+    070123 H45  0.4+  0.1-    080105 726  0.0   0.1-  

060120 291  0.3-  0.1+    070123 H45  0.1-  0.2+    080105 726  0.1-  0.2-  

060120 291  0.3-  0.4+    070123 H45  0.3-  0.4+    080105 726  0.1-  0.1-  

060120 291  1.1-  0.9+    070123 H45  0.0   0.0     080106 046  0.0   0.1+  

060123 461  0.2+  0.0     070123 H45  0.2-  0.4+    080106 046  0.1+  0.2+  

060123 461  0.2-  0.4+    070127 204  0.5-  0.1+    080106 046  0.0   0.1+  

060123 461  0.3-  0.7+    070127 204  0.3-  0.5+    080106 046  0.2+  0.3+  

060204 448  0.0   0.0     070127 204  0.0   1.3+    080106 046  0.1-  0.1-  

060204 448  0.2-  0.1-    070913 A78  0.3-  0.1+    080106 J51  0.3-  0.3-  

060204 448  0.7-  0.1-    070913 A78  0.1-  0.2+    080106 046  0.0   0.1-  

060217 H36  1.2+  1.3+    070913 A78  0.3+  0.2-    080106 J51  0.1+  0.2-  

060217 H36 (2.6+  1.5+)   070913 A78  0.0   0.0     080106 J51  0.1+  0.2+  

060224 G96  0.3-  0.3+    070913 A78  0.4-  0.4+    080107 711  0.5+  0.1+  

060224 G96  0.3-  0.3+    071205 A24  0.1-  0.6+    080107 711  0.5+  0.8+  

060224 G96  0.0   0.5+    071205 A24  0.1-  0.5+    080107 711  0.5+  0.1+  

060331 D35 (3.7+  1.4-)   071216 J51  0.1+  0.2-    080107 B50 (2.1-  3.1-) 

060331 D35 (6.6+  2.3-)   071216 J51  0.3-  0.0     080107 B50  0.3-  0.4-  

060331 D35 (3.7+  0.4-)   071216 J51  0.2-  0.1+    080107 B50  0.9+  0.8+  

060804 147  0.4+  0.2-    071216 673  0.0   0.1+    080107 J69  0.4+  0.3+  

060804 147  0.2+  0.2-    071216 673  0.1+  0.0     080107 J69  0.3+  0.4+  

060804 147  0.1+  0.0     071216 673  0.1-  0.2+    080107 J69  0.2+  0.0   

060804 147  0.2+  0.0     071217 127  0.1-  0.3+    080107 J69  0.2+  0.2-  

060804 147  0.2-  0.2+    071217 127  0.0   0.3+    080107 J69  0.6+  0.3+  

060807 J95  0.0   0.2+    071217 127  0.0   0.2+    080107 J69  0.4+  0.3+  

060807 J95  0.3-  0.3-    071217 127  0.1+  0.1+    080107 J69  0.8+  0.5+  

060807 J95  0.0   0.1-    071217 127  0.1+  0.2+    080108 204  0.1-  0.6-  

060807 204  0.5-  0.1-    071217 595  0.2-  0.3+    080108 204  0.1-  0.6-  

060807 204  0.1-  0.4+    071217 595  0.2-  0.2+    080108 204  0.1-  0.5-  

060807 204  0.2-  0.3-    071217 127  0.1+  0.1+    080108 204  0.1-  0.8-  

060807 204  1.1-  0.8-    071217 127  0.1+  0.3+    080108 204  0.2+  0.1-  

060821 130  0.2-  0.2-    071217 127  0.1+  0.3+    080108 A97  0.0   0.1-  

060821 130  0.3-  0.2-    071217 127  0.2+  0.3-    080108 A97  0.4+  0.4-  

060821 130  0.2-  0.0     071219 H45  0.2+  0.1+    080108 A97  0.1+  0.3-  

060821 130  0.3-  0.1-    071219 H45  0.3+  0.4+    080108 A97  0.4+  0.3-  

